RH
34 34 32 28 25 22 21 20 21 20 19 17 16 16 16 15 14 14 14 14 15 15 15 15 15 16 16 18 20 21 21 21 23 27 29 31 31 31 31 31 31 32 32 32 31 32 33 34 35 36 36 36 34 31 30 30 31 32 32 31 33 36 37 36 32 27 25 27 28 30 32 31 28 27 28 31 37 42 43 43 46 47 47 48 52
32 34 33 32 28 24 22 20 19 19 19 19 17 16 15 15 15 14 13 13 14 14 14 15 15 15 15 16 17 19 21 23 24 25 28 30 31 31 30 30 30 31 31 31 30 31 31 32 34 34 35 35 34 32 30 29 29 30 30 30 31 34 36 37 34 28 23 24 26 28 30 29 29 30 33 36 39 41 40 42 46 47 48 51 55
32 33 34 33 31 28 26 23 20 19 18 18 18 17 16 15 15 15 14 14 14 13 14 14 14 15 14 14 16 17 19 24 26 26 26 27 29 30 30 29 29 29 29 30 30 30 30 31 31 33 33 32 31 31 30 28 28 28 28 29 29 30 33 35 35 31 26 23 24 25 26 27 29 31 35 38 40 41 41 44 47 48 51 55 57
33 32 32 33 33 32 30 27 23 20 18 16 17 17 17 16 15 15 14 15 14 14 14 14 15 15 14 14 15 16 18 21 24 26 26 26 27 27 29 30 29 28 28 28 29 29 30 30 30 31 32 30 28 28 29 28 28 27 26 27 27 28 30 33 34 33 29 24 23 23 23 24 28 31 35 38 41 43 44 46 49 49 51 54 55
37 34 31 32 33 33 32 29 27 23 19 16 15 16 17 17 16 15 14 14 15 14 14 14 14 14 13 13 13 15 17 18 20 22 24 25 26 27 28 29 29 27 27 27 28 29 29 29 29 29 30 30 27 26 27 27 27 26 26 25 26 27 28 30 31 31 30 24 21 22 21 22 26 31 35 39 42 43 44 46 50 51 51 51 52
42 38 33 32 32 32 32 31 28 25 22 19 16 16 16 16 16 16 15 14 14 14 14 14 13 12 12 13 13 14 15 17 19 20 21 22 24 26 26 26 25 24 24 24 24 25 26 27 28 28 28 29 27 26 26 25 25 25 25 24 25 26 27 27 28 28 28 24 21 21 20 21 24 29 34 38 41 43 44 45 48 49 50 49 49
47 42 37 33 31 31 32 31 29 28 25 23 20 18 16 16 16 16 15 15 14 14 13 13 12 12 11 12 12 13 14 15 17 19 20 21 23 24 25 23 21 20 20 21 21 21 22 23 25 26 27 27 27 26 26 25 25 24 24 24 24 24 25 24 25 25 25 23 21 20 19 20 23 27 31 36 39 41 44 46 47 48 50 49 49
50 46 41 36 32 30 31 31 31 30 29 27 25 22 19 18 17 17 17 16 15 14 14 13 13 12 11 11 11 12 13 15 16 18 20 21 22 23 23 22 20 19 18 19 19 21 20 21 21 22 23 24 24 25 25 25 25 24 24 23 23 23 24 23 22 22 22 22 21 20 19 19 20 24 28 33 37 38 41 45 45 47 49 48 48
55 50 46 41 35 32 31 31 32 32 31 30 28 25 22 20 19 18 18 17 16 16 15 15 15 14 13 12 12 12 14 15 16 18 19 21 22 22 22 21 19 18 18 18 18 19 20 20 19 19 20 20 21 22 22 23 23 23 23 23 22 22 21 21 21 21 21 21 21 21 19 18 19 23 27 31 34 36 38 42 44 46 48 45 45
59 54 49 44 39 35 33 32 32 32 32 31 30 28 26 23 21 20 19 18 18 17 17 17 16 15 15 14 14 14 15 16 17 18 19 20 22 22 23 22 20 19 18 18 17 18 19 20 19 19 18 18 18 18 19 20 20 20 21 22 23 23 23 23 22 22 23 22 21 22 21 18 20 24 27 30 33 36 38 41 43 45 46 44 43
63 58 53 48 42 39 37 33 32 31 31 32 32 31 30 27 24 22 21 20 19 19 18 18 17 17 16 16 16 15 16 16 17 18 19 20 22 23 23 22 21 20 20 19 17 17 18 20 19 18 18 18 17 16 17 17 17 19 20 23 25 27 27 27 25 25 24 23 22 23 22 20 21 24 28 31 34 36 38 41 44 45 46 46 45
64 60 56 50 46 42 40 37 34 32 31 31 32 32 31 30 28 25 24 22 21 21 20 19 18 18 18 17 17 17 17 16 17 17 19 20 22 23 23 22 22 21 21 20 19 17 17 20 20 19 19 18 17 16 16 16 16 17 19 23 27 29 30 30 28 26 25 25 24 23 22 22 24 25 28 32 34 36 38 41 44 46 46 47 47
62 61 58 54 51 48 44 41 38 36 34 33 32 32 32 31 29 28 26 24 24 23 21 20 19 19 19 18 18 19 19 18 17 17 18 20 21 23 23 23 22 22 21 21 20 18 17 19 20 20 19 18 17 16 16 16 15 15 17 20 24 27 28 28 28 27 26 25 24 22 21 23 26 26 29 33 36 38 40 42 43 45 46 46 46
63 62 61 59 57 55 52 46 42 40 38 37 35 33 32 31 30 29 28 27 26 25 24 23 22 21 20 19 19 20 22 21 19 18 18 19 21 22 23 23 23 23 22 22 21 19 17 18 20 20 19 18 18 18 17 17 16 16 17 18 20 22 24 25 25 25 25 24 23 20 19 24 28 28 30 35 37 40 43 43 42 43 45 45 44
64 64 63 60 58 58 56 52 48 45 43 41 39 36 33 32 31 30 29 28 27 26 25 25 24 23 22 21 20 20 22 22 21 19 18 18 20 21 22 23 24 24 24 23 22 20 19 18 19 19 19 18 18 18 18 18 19 18 18 18 18 19 21 23 23 24 24 24 23 20 20 25 30 31 33 37 39 40 42 42 40 41 44 44 43
60 63 63 60 56 55 56 54 52 50 48 45 42 40 37 35 34 33 31 30 29 27 27 27 26 25 24 24 23 21 21 22 22 21 19 19 21 22 22 23 24 24 24 22 21 21 20 18 17 17 18 18 18 18 19 20 20 21 21 19 18 19 20 21 22 24 25 25 24 22 23 27 31 32 35 39 40 40 41 40 37 39 43 44 42
56 60 62 61 56 54 55 55 54 52 51 49 45 43 41 39 38 37 35 33 31 30 28 28 27 27 26 26 25 23 21 21 22 22 21 21 23 24 24 23 23 23 23 22 21 21 20 18 16 16 16 17 17 18 20 21 22 23 23 22 21 19 18 18 20 22 23 24 24 24 25 27 31 32 34 37 38 40 41 38 36 39 42 42 42
56 59 59 59 58 56 54 54 54 54 53 51 48 46 45 43 42 41 39 37 36 34 32 31 29 29 28 27 26 24 22 21 21 21 22 23 24 25 24 24 23 23 23 22 21 20 19 18 17 16 15 15 16 18 20 23 24 25 25 23 22 19 15 15 17 20 21 23 24 25 26 29 32 32 33 34 36 39 40 37 37 41 41 41 43
57 58 57 58 60 60 56 52 51 53 53 52 51 50 49 47 46 44 42 41 40 40 38 36 33 31 30 29 28 27 25 22 22 21 22 24 26 26 26 25 24 24 23 21 20 19 18 18 17 16 15 13 14 17 20 24 27 26 26 26 24 20 15 15 17 19 21 23 24 26 28 31 33 33 33 34 36 38 40 39 40 42 41 41 43
57 59 61 61 61 60 56 51 49 50 51 52 53 53 52 51 49 47 45 44 43 43 42 40 38 36 33 32 30 28 27 25 23 22 21 22 24 26 27 26 23 22 21 20 19 18 18 17 16 15 14 12 13 15 18 23 27 26 27 29 26 19 17 18 19 19 21 23 26 27 29 31 33 34 34 35 37 40 41 41 42 43 43 43 43
58 63 67 66 62 58 54 50 48 49 51 53 54 55 54 53 52 50 48 46 46 46 44 43 42 41 38 35 32 30 29 27 25 24 23 23 23 24 26 25 23 21 20 20 20 19 18 17 15 14 14 13 13 15 18 23 26 27 29 28 24 21 21 22 21 21 22 24 25 27 28 30 33 34 35 38 41 43 43 42 43 44 45 45 45
62 67 68 65 63 60 55 51 49 48 51 54 54 54 54 54 53 52 51 50 49 48 47 46 44 44 42 40 35 31 29 28 27 25 24 24 23 23 24 24 23 22 22 21 21 19 18 17 16 15 16 16 16 16 19 23 27 28 28 26 24 25 26 25 24 25 25 24 24 25 27 30 33 36 38 40 43 45 44 43 44 45 46 47 46
67 69 67 63 62 60 57 53 50 48 50 52 52 53 54 54 54 54 53 53 52 51 49 48 45 44 44 42 38 34 30 28 27 26 25 25 24 23 23 23 22 23 24 23 21 20 19 18 17 16 17 18 18 19 22 26 29 29 28 26 27 28 30 29 27 25 24 24 25 25 27 30 34 37 40 42 44 45 45 44 45 46 47 47 46
67 68 66 62 58 56 55 55 53 49 48 49 50 50 52 53 54 55 56 56 55 54 51 48 46 45 44 44 42 39 34 30 28 27 26 26 25 24 23 23 22 23 24 24 23 22 20 18 17 17 17 18 19 20 23 27 31 31 30 29 29 30 31 29 27 26 25 26 27 27 27 30 34 37 40 43 44 45 45 45 46 48 47 47 47
65 64 61 57 53 51 51 54 55 52 48 47 47 48 50 52 54 55 57 58 57 55 53 50 47 45 45 45 44 43 40 34 29 27 27 26 26 25 24 23 23 24 24 24 24 23 21 19 18 19 19 19 19 21 24 29 32 34 33 32 31 31 31 31 30 30 30 29 28 28 29 31 35 38 41 43 44 44 45 46 48 49 48 48 49
62 59 56 53 52 51 50 51 53 54 50 47 45 46 49 52 55 57 58 58 57 56 55 53 51 48 47 46 46 46 44 39 31 28 27 27 26 26 25 25 24 24 25 24 24 24 23 21 21 21 20 20 21 22 25 29 33 35 36 35 34 34 34 34 34 33 32 31 32 32 33 35 38 40 42 44 45 45 46 48 49 51 52 53 53
53 51 50 51 52 52 51 51 52 53 52 49 48 48 50 53 56 57 57 56 54 55 55 55 54 52 50 49 49 49 47 42 34 29 28 27 26 26 26 27 26 26 26 26 25 25 25 23 22 22 21 22 23 24 27 30 34 37 37 37 37 38 38 38 37 36 34 35 36 37 38 40 41 42 43 45 46 48 49 51 54 56 57 58 55
46 44 45 49 51 53 53 53 52 52 52 51 50 50 52 55 56 56 55 55 55 56 57 56 56 55 54 55 54 51 47 41 34 29 27 25 24 24 25 26 27 27 27 27 26 27 26 25 24 23 24 24 25 26 28 31 35 37 38 39 41 41 41 40 40 39 38 38 38 39 40 41 42 44 46 48 50 53 57 59 60 61 61 58 54
43 41 41 45 49 52 54 54 52 51 52 51 50 50 52 56 58 58 58 58 58 59 58 56 55 56 57 59 57 52 45 38 30 25 24 22 21 22 23 23 25 25 26 28 30 30 28 27 26 25 25 26 26 27 29 32 36 38 39 41 42 41 40 41 41 40 39 39 40 41 41 41 43 46 50 54 60 66 67 65 63 63 61 59 55
42 40 41 43 46 49 53 54 53 52 52 51 50 53 55 56 57 57 59 60 60 59 57 55 55 55 56 58 57 51 44 36 28 26 27 25 23 23 23 24 26 26 28 31 34 32 29 28 28 27 28 28 28 29 31 33 36 38 39 41 42 42 42 42 42 41 42 43 46 47 47 48 50 50 54 61 67 71 69 66 65 64 61 59 57
41 40 41 43 44 47 51 53 54 54 53 51 52 54 54 54 53 52 53 56 58 58 56 56 56 55 55 57 56 52 46 37 31 29 30 29 29 28 28 30 31 31 32 35 34 31 29 28 29 30 32 32 33 35 36 37 39 41 43 44 44 44 46 47 49 51 52 53 54 56 56 57 58 58 60 64 68 67 66 66 67 64 60 57 56
42 40 40 42 45 48 51 52 54 56 57 58 57 52 48 48 49 49 50 52 54 55 56 57 58 56 55 57 57 54 48 39 32 30 31 31 31 31 31 32 34 35 36 36 33 30 28 29 31 32 34 36 39 41 42 44 46 48 50 51 51 52 55 58 59 59 60 59 59 60 61 62 62 62 63 64 65 64 65 67 67 66 63 61 62
41 39 40 41 43 48 51 52 52 53 55 59 60 55 51 50 51 52 55 57 58 56 56 58 59 57 56 57 57 56 52 42 34 32 33 32 32 32 33 34 36 37 37 36 32 30 30 32 33 35 38 42 45 48 51 52 56 60 62 63 63 64 64 61 60 60 62 63 64 64 63 63 63 63 63 63 63 64 65 67 68 67 64 65 70
40 39 39 39 41 45 49 51 51 49 49 51 53 53 55 57 58 57 58 63 66 64 60 61 61 58 56 56 56 56 53 45 37 35 34 34 35 35 36 37 37 37 36 34 32 33 34 36 40 44 50 54 57 60 62 64 70 78 77 73 72 70 63 58 59 62 63 63 65 65 64 63 64 63 64 64 65 65 64 63 63 62 59 61 69
40 38 37 37 38 41 45 48 50 49 48 49 50 51 55 60 62 61 60 64 69 67 62 61 62 59 55 54 54 54 52 47 42 40 39 40 41 41 39 38 38 36 34 33 33 34 35 37 40 45 50 53 56 58 60 62 70 78 78 73 72 70 64 59 60 63 63 63 64 65 65 64 63 61 61 62 61 60 59 58 57 58 58 59 66
40 38 37 35 35 36 39 42 45 46 48 51 54 57 58 59 59 58 57 60 65 65 62 60 60 60 57 55 53 53 52 49 49 48 46 45 44 43 42 41 38 34 33 32 32 34 36 37 39 42 46 51 54 58 62 64 68 73 77 76 73 69 65 62 62 63 63 64 65 66 66 65 62 60 59 57 54 54 56 56 55 58 60 60 64
41 39 37 35 34 34 34 35 39 44 48 51 54 56 58 57 57 56 55 56 60 63 62 60 59 62 63 58 52 50 50 51 53 55 52 48 45 44 43 40 37 34 33 33 34 37 41 43 45 47 52 58 62 63 65 68 70 74 77 76 70 63 61 64 65 64 64 64 65 67 68 66 64 62 59 57 55 56 58 58 58 61 64 64 66
43 41 38 35 34 34 33 34 38 44 49 53 57 59 60 61 62 60 58 59 60 59 59 58 57 61 67 64 53 46 47 51 55 55 53 49 46 44 43 40 38 38 37 38 41 46 49 51 54 57 63 68 69 68 68 70 72 73 72 71 68 64 63 66 66 65 65 65 66 68 68 67 64 60 57 56 55 54 55 56 58 61 66 68 68
45 44 41 36 34 34 34 35 39 43 48 53 58 62 65 68 67 65 65 67 66 61 59 58 57 58 65 68 61 52 50 54 56 55 53 51 48 46 45 44 44 44 43 44 47 53 57 58 61 66 71 74 74 71 71 72 71 69 66 67 66 64 61 62 62 61 62 62 63 64 65 64 62 59 58 57 54 52 51 53 54 57 62 68 69
47 47 46 42 38 37 37 38 40 43 46 50 53 58 64 68 68 68 69 70 68 65 64 63 60 58 63 68 66 60 56 57 57 55 54 52 49 47 47 48 49 51 52 53 56 59 60 62 64 68 74 77 75 73 73 72 70 67 68 70 69 64 59 57 58 59 60 61 61 59 58 57 56 56 59 58 56 53 53 52 51 53 58 63 67
53 51 50 48 45 42 41 42 43 45 47 49 51 56 62 66 68 69 71 70 67 66 67 66 63 61 64 69 69 63 57 54 54 54 55 55 52 49 50 52 54 56 58 62 64 64 62 64 68 71 73 73 71 69 68 67 67 67 69 70 70 68 65 63 62 61 60 60 60 59 57 58 60 62 62 59 56 54 54 52 52 53 56 58 60
57 56 55 54 54 51 48 46 46 47 49 51 53 56 60 63 65 67 70 70 66 63 63 65 65 66 68 71 70 65 58 54 55 57 58 57 54 53 53 54 55 57 60 62 64 65 65 67 70 69 68 68 67 64 63 64 67 69 70 70 69 70 70 71 70 68 63 62 62 61 59 61 65 65 61 57 55 54 55 56 55 56 57 58 57
60 59 60 60 60 59 55 51 50 49 48 50 54 56 56 59 63 66 67 66 62 57 57 60 64 67 71 72 69 66 60 58 59 61 61 59 57 57 57 56 56 59 62 62 62 65 66 65 63 61 61 63 63 62 62 64 66 66 65 65 67 69 71 72 73 71 68 66 66 65 64 64 64 62 61 60 59 60 63 66 66 64 63 61 60
67 66 67 67 68 68 65 59 55 53 51 52 57 59 58 60 64 65 62 61 60 59 58 60 63 69 73 72 69 65 62 59 59 62 63 62 60 61 62 61 61 61 62 61 62 64 65 65 64 63 61 59 60 61 60 59 61 64 66 67 68 69 71 72 72 72 71 70 70 70 70 69 65 62 62 63 63 63 66 69 70 67 65 63 62
73 72 70 69 72 75 75 69 64 62 59 57 61 64 62 61 63 64 62 61 61 62 65 68 69 72 75 73 69 66 63 59 58 61 64 66 66 66 67 68 67 65 65 67 70 70 69 69 69 67 65 64 66 68 65 61 62 67 70 71 71 72 72 72 71 72 74 74 74 74 74 72 66 63 62 63 64 64 66 67 68 66 64 63 63
76 78 76 74 73 76 77 76 74 71 65 60 62 67 67 65 64 65 68 70 70 69 71 75 75 75 75 74 71 67 64 62 62 64 68 70 72 72 71 69 68 66 65 66 68 67 67 68 66 64 63 64 66 68 70 71 72 72 72 73 74 74 72 72 72 72 74 75 76 77 75 71 66 64 63 64 66 67 66 66 66 65 63 63 64
76 80 81 79 78 77 77 75 74 72 68 65 65 67 68 68 67 67 70 75 78 78 79 80 79 76 75 75 72 68 65 68 71 73 74 75 76 76 74 72 69 67 64 62 64 68 73 74 68 62 61 63 65 69 73 75 74 73 75 77 78 76 74 73 74 74 76 77 77 75 72 69 66 66 68 69 71 71 69 69 69 69 68 68 68
75 80 82 81 81 83 82 77 75 77 80 80 76 73 71 72 74 76 77 79 80 81 82 81 80 77 78 80 77 71 69 74 78 80 81 81 81 81 80 79 79 77 75 72 74 77 78 74 69 66 68 72 76 79 81 79 76 75 78 80 80 78 76 76 76 76 77 77 75 72 71 71 71 70 71 73 75 74 72 71 72 73 72 72 72
72 79 82 81 81 84 85 81 80 85 92 94 90 86 83 82 82 85 87 87 86 86 86 85 86 85 83 81 79 77 79 82 83 81 78 76 73 71 71 72 73 75 75 75 76 76 75 73 73 75 78 79 78 78 79 78 77 78 80 81 82 81 80 78 76 75 74 73 73 72 74 75 74 74 75 77 77 74 72 71 71 71 71 71 71
68 73 78 79 79 81 83 82 82 87 96 99 97 94 91 87 84 84 86 88 89 90 91 91 90 87 82 80 81 84 85 84 79 74 71 68 66 66 68 71 73 76 78 78 77 76 77 78 79 82 82 79 76 75 76 77 77 78 80 83 86 86 83 78 75 73 72 71 73 75 75 74 74 75 77 76 73 70 68 66 65 65 66 65 64
68 72 77 80 79 79 80 81 82 85 93 99 100 97 93 89 86 85 85 85 86 88 91 93 92 88 84 84 85 83 79 75 72 70 70 71 72 74 76 78 78 78 78 77 77 78 80 80 81 82 83 82 81 82 83 83 82 82 83 83 84 85 82 77 75 75 75 76 77 77 75 72 72 75 76 74 71 69 67 66 64 62 59 57 55